Regional Weather Roundup
Issued by NWS

Home | Current Version | Previous Version | Text Only | Print | Product List | Glossary On
Versions: 1 2 3 4 5 6 7 8 9 10 11 12 13 14 15 16 17 18 19 20 21 22 23 24 25 26 27 28 29 30 31 32 33 34 35 36 37 38 39 40 41 42 43 44 45 46 47 48 49 50
000
ASUS45 KABQ 140010
RWRNM
NEW MEXICO REGIONAL WEATHER ROUNDUP
NATIONAL WEATHER SERVICE ALBUQUERQUE NM
500 PM MST SAT FEB 13 2016

NOTE: "FAIR" MEANS FEW OR NO CLOUDS BELOW 12,000 FEET AGL WITH NO
       SIGNIFICANT WEATHER OR OBSTRUCTIONS TO VISION.

      THIS PRODUCT IS RELEASED AS TWO VERSIONS.  ONE VERSION NEAR
      THE TOP OF THE HOUR CONTAINING PRELIMINARY DATA FROM ALBUQUERQUE
      AND OTHER STATIONS.  A FINAL VERSION WITH ADDITIONAL DATA IS
      ISSUED ABOUT 10 MINUTES AFTER THE HOUR.

NMZ501-503-504-510>518-140100-
NORTHWEST PLATEAU/NORTHCENTRAL MOUNTAINS

CITY           SKY/WX    TMP DP  RH WIND       PRES   REMARKS
FARMINGTON     FAIR      60  20  21 W14       30.13R
6HR MIN TEMP:  49; 6HR MAX TEMP:  64;

LOS ALAMOS     FAIR      58  11  15 W10       30.17S
SANTA FE       FAIR      63  10  12 NW17G26   30.10S
6HR MIN TEMP:  56; 6HR MAX TEMP:  67;

TAOS           FAIR      54  18  24 W13       30.15R
ANGEL FIRE     FAIR      47  14  26 W17G35    30.13F

$$
NMZ402-403-502-505>509-140100-
WESTCENTRAL MOUNTAINS/SOUTHWEST MOUNTAINS

CITY           SKY/WX    TMP DP  RH WIND       PRES   REMARKS
GALLUP         FAIR      62  10  13 NW9       30.18S
6HR MIN TEMP:  54; 6HR MAX TEMP:  66;

GRANTS         FAIR      62   4  10 W10G20    30.18S
SILVER CITY      N/A     68   7   9 NW14G21   30.16R

$$
NMZ407-409-411-412-140100-
SOUTHERN DESERTS

CITY           SKY/WX    TMP DP  RH WIND       PRES   REMARKS
LORDSBURG      FAIR      73  14  10 NW12      30.08S
DEMING         FAIR      75  11   8 W10       30.07F
6HR MIN TEMP:  62; 6HR MAX TEMP:  75;

LAS CRUCES     FAIR      72   9   9 SW8       30.10S
HOLLOMAN AFB   FAIR      72   8   8 S2        30.06F
ALAMOGORDO     FAIR      72  14  11 CALM      30.08F
T OR C         FAIR      72   5   7 S13       30.05F
6HR MIN TEMP:  61; 6HR MAX TEMP:  73;


$$
NMZ519>523-140100-
CENTRAL VALLEYS/CENTRAL HIGHLANDS

CITY           SKY/WX    TMP DP  RH WIND       PRES   REMARKS
ALBUQUERQUE    FAIR      67  13  12 S8        30.09F
6HR MIN TEMP:  53; 6HR MAX TEMP:  69;

DOUBLE EAGLE   CLEAR     66  16  14 SW8       30.11F
MORIARTY ARPT  FAIR      63  10  12 W10       30.13F
6HR MIN TEMP:  56; 6HR MAX TEMP:  67;

CLINES CORNERS FAIR      57  15  19 W22G29    30.12F
6HR MIN TEMP:  56; 6HR MAX TEMP:  63;

BELEN          FAIR      70  11  10 SE7       30.08F
6HR MIN TEMP:  53; 6HR MAX TEMP:  71;

SOCORRO        FAIR      71   9   9 SW8       30.06F
6HR MIN TEMP:  55; 6HR MAX TEMP:  73;


$$
NMZ524>526-539-540-140100-
SOUTHCENTRAL MOUNTAINS

CITY           SKY/WX    TMP DP  RH WIND       PRES   REMARKS
RUIDOSO          N/A     59   7  12 SW5       30.18F

$$
NMZ527>531-140100-
NORTHEAST HIGHLANDS/NORTHEAST PLAINS

CITY           SKY/WX    TMP DP  RH WIND       PRES   REMARKS
LAS VEGAS      FAIR      60  14  16 NW15      30.09R
6HR MIN TEMP:  60; 6HR MAX TEMP:  65;

RATON          FAIR      62   5  10 SW12      29.99F
6HR MIN TEMP:  54; 6HR MAX TEMP:  69;

CLAYTON        FAIR      70  16  12 SW14      29.92S
6HR MIN TEMP:  64; 6HR MAX TEMP:  76;


$$
NMZ532>537-140100-
EASTCENTRAL PLAINS

CITY           SKY/WX    TMP DP  RH WIND       PRES   REMARKS
TUCUMCARI      FAIR      71  17  12 SW21      29.94F
6HR MIN TEMP:  66; 6HR MAX TEMP:  77;

CANNON AFB     FAIR      68  14  12 SW14      30.00F
6HR MIN TEMP:  58; 6HR MAX TEMP:  73;

CLOVIS AIRPORT FAIR      66  18  15 SW15G21   30.02F

$$
NMZ028-029-538-140100-
SOUTHEAST PLAINS

CITY           SKY/WX    TMP DP  RH WIND       PRES   REMARKS
ROSWELL        FAIR      74  20  13 S14       29.99F
6HR MIN TEMP:  54; 6HR MAX TEMP:  76;

ARTESIA        FAIR      75  19  12 SW16G25   30.00F
CARLSBAD       FAIR      70  29  21 S5        30.01F
6HR MIN TEMP:  56; 6HR MAX TEMP:  76;

HOBBS          CLEAR     70  23  17 S12       30.06F


$$



USA.gov is the U.S. government's official web portal to all federal, state and local government web resources and services.